Hourly Weather Skripovo

Today, 29 September, Tuesday

Time Temperature Precipitation Wind Pressure Humidity
00:00 +10°C° 0 mm 3 mps 750 mmHg 67%
01:00 +10°C° 0 mm 3 mps 750 mmHg 65%
02:00 +10°C° 0 mm 3 mps 750 mmHg 64%
03:00 +10°C° 0 mm 3 mps 750 mmHg 62%
04:00 +10°C° 0 mm 3 mps 750 mmHg 61%
05:00 +10°C° 0 mm 3 mps 749 mmHg 59%
06:00 +10°C° 0 mm 3 mps 749 mmHg 57%
07:00 +11°C° 0 mm 3 mps 749 mmHg 56%
08:00 +12°C° 0 mm 4 mps 750 mmHg 54%
09:00 +12°C° 0 mm 4 mps 749 mmHg 53%
10:00 +13°C° 0 mm 4 mps 749 mmHg 53%
11:00 +14°C° 0 mm 4 mps 749 mmHg 52%
12:00 +15°C° 0 mm 4 mps 749 mmHg 50%
13:00 +15°C° 0 mm 4 mps 749 mmHg 48%
14:00 +16°C° 0 mm 5 mps 749 mmHg 46%
15:00 +15°C° 0 mm 4 mps 749 mmHg 48%
16:00 +14°C° 0 mm 4 mps 749 mmHg 51%
17:00 +12°C° 0 mm 3 mps 748 mmHg 53%
18:00 +12°C° 0 mm 3 mps 748 mmHg 51%
19:00 +12°C° 0 mm 3 mps 748 mmHg 49%
20:00 +11°C° 0 mm 3 mps 748 mmHg 47%
21:00 +11°C° 0 mm 3 mps 748 mmHg 48%
22:00 +10°C° 0 mm 3 mps 748 mmHg 49%
23:00 +10°C° 0 mm 3 mps 748 mmHg 49%

Tomorrow, 30 September, Wednesday

Time Temperature Precipitation Wind Pressure Humidity
00:00 +10°C° 0 mm 3 mps 748 mmHg 50%
01:00 +9°C° 0 mm 3 mps 748 mmHg 51%
02:00 +9°C° 0 mm 3 mps 748 mmHg 52%
03:00 +8°C° 0 mm 4 mps 748 mmHg 53%
04:00 +8°C° 0 mm 4 mps 748 mmHg 53%
05:00 +8°C° 0 mm 4 mps 747 mmHg 54%
06:00 +10°C° 0 mm 4 mps 748 mmHg 54%
07:00 +10°C° 0 mm 5 mps 748 mmHg 55%
08:00 +12°C° 0 mm 5 mps 748 mmHg 56%
09:00 +13°C° 0 mm 5 mps 748 mmHg 51%
10:00 +15°C° 0 mm 6 mps 748 mmHg 46%
11:00 +17°C° 0 mm 6 mps 748 mmHg 42%
12:00 +17°C° 0 mm 6 mps 748 mmHg 42%
13:00 +19°C° 0 mm 6 mps 747 mmHg 42%
14:00 +19°C° 0 mm 6 mps 747 mmHg 42%
15:00 +17°C° 0 mm 5 mps 747 mmHg 48%
16:00 +15°C° 0 mm 5 mps 747 mmHg 53%
17:00 +14°C° 0 mm 4 mps 747 mmHg 59%
18:00 +14°C° 0 mm 4 mps 747 mmHg 60%
19:00 +13°C° 0 mm 4 mps 748 mmHg 61%
20:00 +13°C° 0 mm 5 mps 748 mmHg 62%
21:00 +12°C° 0 mm 4 mps 748 mmHg 63%
22:00 +12°C° 0 mm 4 mps 748 mmHg 63%
23:00 +11°C° 0 mm 4 mps 748 mmHg 64%

Day after tomorrow, 1 October, Thursday

Time Temperature Precipitation Wind Pressure Humidity
00:00 +11°C° 0 mm 4 mps 748 mmHg 64%
01:00 +11°C° 0 mm 4 mps 748 mmHg 64%
02:00 +10°C° 0 mm 4 mps 748 mmHg 64%
03:00 +10°C° 0 mm 4 mps 748 mmHg 65%
04:00 +10°C° 0 mm 4 mps 748 mmHg 66%
05:00 +8°C° 0 mm 4 mps 748 mmHg 67%
06:00 +11°C° 0 mm 4 mps 748 mmHg 65%
07:00 +12°C° 0 mm 4 mps 748 mmHg 62%
08:00 +13°C° 0 mm 4 mps 748 mmHg 59%
09:00 +14°C° 0 mm 5 mps 749 mmHg 53%
10:00 +16°C° 0 mm 6 mps 749 mmHg 47%
11:00 +17°C° 0 mm 6 mps 749 mmHg 41%
12:00 +17°C° 0 mm 6 mps 749 mmHg 40%
13:00 +17°C° 0 mm 6 mps 748 mmHg 38%
14:00 +17°C° 0 mm 6 mps 748 mmHg 37%
15:00 +16°C° 0 mm 5 mps 748 mmHg 42%
16:00 +14°C° 0 mm 4 mps 748 mmHg 47%
17:00 +13°C° 0 mm 3 mps 748 mmHg 52%
18:00 +12°C° 0 mm 3 mps 748 mmHg 54%
19:00 +12°C° 0 mm 4 mps 749 mmHg 55%
20:00 +12°C° 0 mm 4 mps 749 mmHg 57%
21:00 +12°C° 0 mm 4 mps 749 mmHg 56%
22:00 +11°C° 0 mm 4 mps 749 mmHg 55%
23:00 +11°C° 0 mm 4 mps 749 mmHg 54%

2 October, Friday

Time Temperature Precipitation Wind Pressure Humidity
00:00 +11°C° 0 mm 4 mps 749 mmHg 54%
01:00 +11°C° 0 mm 4 mps 749 mmHg 54%
02:00 +11°C° 0 mm 4 mps 749 mmHg 54%
03:00 +10°C° 0 mm 4 mps 749 mmHg 56%
04:00 +10°C° 0 mm 4 mps 749 mmHg 57%
05:00 +10°C° 0 mm 4 mps 749 mmHg 59%
06:00 +10°C° 0 mm 4 mps 749 mmHg 60%
07:00 +11°C° 0 mm 4 mps 750 mmHg 60%
08:00 +12°C° 0 mm 4 mps 750 mmHg 61%
09:00 +13°C° 0 mm 4 mps 750 mmHg 59%
10:00 +15°C° 0 mm 5 mps 750 mmHg 56%
11:00 +16°C° 0 mm 5 mps 750 mmHg 54%
12:00 +17°C° 0 mm 5 mps 750 mmHg 54%
13:00 +17°C° 0 mm 5 mps 750 mmHg 54%
14:00 +17°C° 0 mm 5 mps 750 mmHg 54%
15:00 +17°C° 0 mm 4 mps 749 mmHg 58%
16:00 +15°C° 0 mm 4 mps 749 mmHg 63%
17:00 +14°C° 0 mm 3 mps 749 mmHg 67%
18:00 +13°C° 0 mm 3 mps 750 mmHg 69%
19:00 +13°C° 0 mm 3 mps 750 mmHg 70%
20:00 +12°C° 0 mm 3 mps 750 mmHg 71%
21:00 +12°C° 0 mm 3 mps 750 mmHg 72%
22:00 +11°C° 0 mm 3 mps 750 mmHg 73%
23:00 +11°C° 0 mm 3 mps 750 mmHg 74%

3 October, Saturday

Time Temperature Precipitation Wind Pressure Humidity
00:00 +11°C° 0 mm 3 mps 750 mmHg 74%
01:00 +10°C° 0 mm 3 mps 750 mmHg 74%
02:00 +10°C° 0 mm 3 mps 750 mmHg 74%
03:00 +10°C° 0 mm 3 mps 750 mmHg 74%
04:00 +10°C° 0 mm 3 mps 750 mmHg 74%
05:00 +9°C° 0 mm 3 mps 750 mmHg 74%
06:00 +10°C° 0 mm 4 mps 750 mmHg 70%
07:00 +11°C° 0 mm 4 mps 750 mmHg 66%
08:00 +12°C° 0 mm 4 mps 750 mmHg 62%
09:00 +13°C° 0 mm 5 mps 750 mmHg 57%
10:00 +15°C° 0 mm 5 mps 750 mmHg 51%
11:00 +16°C° 0 mm 5 mps 750 mmHg 46%
12:00 +16°C° 0 mm 5 mps 750 mmHg 46%
13:00 +16°C° 0 mm 5 mps 750 mmHg 46%
14:00 +17°C° 0 mm 5 mps 750 mmHg 47%
15:00 +15°C° 0 mm 4 mps 750 mmHg 51%
16:00 +14°C° 0 mm 3 mps 750 mmHg 56%
17:00 +13°C° 0 mm 3 mps 749 mmHg 61%
18:00 +13°C° 0 mm 3 mps 750 mmHg 61%
19:00 +12°C° 0 mm 3 mps 750 mmHg 62%
20:00 +12°C° 0 mm 3 mps 750 mmHg 62%
21:00 +12°C° 0 mm 3 mps 750 mmHg 62%
22:00 +11°C° 0 mm 3 mps 750 mmHg 62%
23:00 +11°C° 0 mm 3 mps 750 mmHg 62%

4 October, Sunday

Time Temperature Precipitation Wind Pressure Humidity
00:00 +11°C° 0 mm 3 mps 750 mmHg 63%
01:00 +10°C° 0 mm 3 mps 750 mmHg 63%
02:00 +10°C° 0 mm 3 mps 750 mmHg 64%
03:00 +10°C° 0 mm 3 mps 750 mmHg 65%
04:00 +9°C° 0 mm 3 mps 750 mmHg 65%
05:00 +9°C° 0 mm 3 mps 750 mmHg 66%
06:00 +10°C° 0 mm 3 mps 751 mmHg 64%
07:00 +11°C° 0 mm 3 mps 751 mmHg 61%
08:00 +12°C° 0 mm 4 mps 751 mmHg 58%
09:00 +13°C° 0 mm 4 mps 751 mmHg 53%
10:00 +15°C° 0 mm 4 mps 751 mmHg 49%
11:00 +17°C° 0 mm 4 mps 751 mmHg 44%
12:00 +17°C° 0 mm 4 mps 751 mmHg 43%
13:00 +18°C° 0 mm 4 mps 751 mmHg 42%
14:00 +18°C° 0 mm 4 mps 751 mmHg 41%
15:00 +17°C° 0 mm 3 mps 751 mmHg 46%
16:00 +14°C° 0 mm 3 mps 751 mmHg 51%
17:00 +12°C° 0 mm 3 mps 751 mmHg 56%
18:00 +12°C° 0 mm 3 mps 751 mmHg 59%
19:00 +11°C° 0 mm 3 mps 751 mmHg 61%
20:00 +10°C° 0 mm 3 mps 752 mmHg 64%
21:00 +10°C° 0 mm 3 mps 752 mmHg 66%
22:00 +10°C° 0 mm 3 mps 752 mmHg 69%
23:00 +9°C° 0 mm 3 mps 752 mmHg 72%
Show more